Lid_Strength_Index
2 2 2 2 2 2 1 1 1 1 1 -0 -0 -0 -0 -0 -0 1 4 3 5 8 9 9 9 11 11 13 18 17 16 17 16 18 23 17 20 15 18 16 17 18 19 20 18 22 20 12 13 17 14 12 12 13
2 2 1 1 1 1 1 1 1 0 0 -0 -0 -0 -0 -0 0 0 5 3 2 7 9 6 6 6 6 8 11 15 14 19 14 19 22 22 24 23 22 26 15 20 16 20 17 17 12 11 11 11 9 13 13 13
1 1 0 0 0 0 0 0 0 0 0 0 -0 -0 -0 -0 -0 1 5 5 4 6 7 9 9 6 5 5 5 10 14 9 10 10 17 15 20 17 25 23 19 15 13 16 17 14 12 11 10 9 9 11 12 12
1 0 0 0 0 1 1 0 0 1 1 1 1 0 0 0 0 0 5 4 4 6 11 11 8 8 5 5 5 5 7 8 8 9 11 14 19 13 18 15 16 15 14 15 14 12 10 10 10 10 10 11 12 12
0 0 0 0 0 0 1 1 1 1 1 1 1 1 1 0 0 1 3 4 3 6 11 13 13 8 7 6 7 6 7 7 8 10 11 14 15 14 15 12 15 12 12 13 15 10 9 10 9 9 11 12 12 13
0 0 0 0 0 0 1 1 1 1 1 1 1 1 1 1 1 4 7 4 3 3 8 16 10 12 8 7 7 8 8 8 8 9 10 10 9 10 13 16 12 10 9 8 9 7 8 8 8 9 12 12 12 13
1 1 1 1 1 1 1 1 1 1 1 1 1 0 1 1 3 6 7 6 3 3 7 11 15 13 9 10 11 9 8 7 7 7 9 9 9 8 10 13 10 8 7 7 8 10 11 9 11 11 11 12 13 14
1 1 1 1 1 1 1 1 1 1 1 1 1 1 1 0 1 4 2 2 1 4 6 12 14 14 11 15 14 8 8 7 7 8 10 9 8 8 12 9 8 7 7 9 11 11 12 12 13 13 14 14 16 16
1 1 1 1 1 2 2 1 1 1 1 1 1 1 3 4 6 7 1 -0 1 5 11 16 18 15 9 10 10 12 8 11 7 9 9 9 10 13 11 9 9 14 15 16 15 15 15 17 17 16 16 17 18 18
2 2 2 2 1 2 2 2 2 1 1 1 3 6 8 7 2 2 5 7 7 7 7 14 19 18 10 12 13 13 10 11 13 12 8 10 12 8 16 16 16 17 17 18 20 20 21 20 19 19 19 18 18 19
2 2 2 2 2 2 2 2 2 2 2 5 6 8 6 2 6 8 10 11 11 12 8 10 10 11 8 12 13 8 11 11 14 16 16 26 23 13 18 19 19 18 18 19 20 20 20 20 21 21 20 20 20 21
2 2 2 2 2 2 2 2 2 3 5 5 5 4 4 6 9 11 13 13 13 13 18 16 13 10 11 9 13 11 13 12 16 23 20 22 16 21 22 22 20 20 22 23 22 22 21 20 20 21 22 23 23 23
3 3 2 2 2 2 2 2 2 2 2 3 5 8 8 9 13 14 19 21 22 19 18 17 14 10 11 9 12 13 15 17 20 21 19 17 21 22 24 23 23 22 23 22 22 21 22 23 23 24 24 23 24 25
3 2 3 2 2 2 2 1 1 1 3 7 9 12 12 16 16 17 18 20 18 16 20 17 16 13 16 13 11 16 15 17 21 21 20 28 26 28 25 23 24 24 24 24 25 25 25 25 25 24 25 25 25 25
3 3 2 2 2 2 2 1 1 2 4 7 8 12 13 19 23 23 24 19 19 17 15 16 13 9 15 12 11 14 16 20 20 20 27 28 25 24 24 24 25 26 26 26 26 26 26 26 26 26 25 24 23 23
2 2 4 2 2 1 1 1 2 3 5 8 11 14 20 19 21 22 20 18 17 15 13 12 14 13 15 13 14 17 21 22 20 34 32 28 30 29 29 28 27 27 27 27 26 26 26 26 27 26 24 23 23 24
1 8 1 1 1 0 0 3 4 8 9 14 22 26 24 22 22 25 24 21 17 19 18 15 16 17 14 15 18 22 22 31 35 34 32 31 30 29 29 29 28 28 28 27 26 26 27 27 26 24 25 24 24 24
10 5 1 0 1 1 4 6 8 13 19 19 24 28 25 26 25 26 25 20 19 19 21 20 18 23 23 24 23 31 34 36 35 33 28 28 30 31 30 29 28 28 28 27 28 28 27 25 25 25 25 24 25 24
4 1 -0 -0 2 6 8 11 13 20 23 25 23 24 25 27 23 22 24 21 20 21 21 23 25 26 27 32 34 38 39 37 35 28 27 29 28 30 30 29 28 30 29 28 27 25 24 24 24 24 24 24 26 25
2 2 2 3 4 9 13 15 16 21 26 23 24 28 26 26 27 33 32 23 20 25 25 25 30 35 31 30 28 28 27 27 32 35 32 28 28 32 29 27 26 27 26 26 25 24 24 24 23 23 24 24 25 26
5 5 5 8 13 14 16 17 20 21 22 25 26 25 26 29 34 34 33 24 26 24 29 35 36 32 32 32 31 33 30 29 32 32 33 32 26 26 25 26 26 27 27 27 27 26 26 26 25 24 24 24 24 24
8 6 12 10 14 17 18 18 20 21 24 27 26 30 35 34 35 35 28 31 29 33 34 34 35 36 37 35 34 34 34 37 35 31 26 26 27 27 26 27 28 29 28 28 27 27 27 26 25 25 24 24 23 24
11 11 15 17 19 22 23 22 25 24 28 28 32 31 31 35 33 25 29 36 35 32 37 37 37 39 36 35 33 33 33 33 32 30 29 28 27 26 26 26 28 30 30 29 27 27 27 26 26 26 26 25 26 26
15 22 23 25 25 29 28 28 26 28 28 30 31 33 33 35 28 31 33 41 35 37 36 36 36 33 32 32 33 32 31 29 28 28 28 28 27 27 26 27 28 29 29 29 28 28 28 28 28 28 29 29 28 28
21 30 28 33 30 30 33 34 33 31 33 33 33 33 32 31 31 34 34 36 38 39 35 34 32 32 33 31 28 28 28 27 27 27 27 27 27 26 26 26 26 28 28 30 30 30 30 29 29 30 31 32 33 33
35 36 35 37 34 33 35 35 36 34 34 34 32 33 35 31 33 34 35 37 40 34 31 29 30 30 29 28 27 27 26 26 26 27 25 26 27 28 28 29 29 28 29 32 33 33 32 30 31 32 32 33 33 36
37 38 36 36 34 34 35 33 32 31 33 33 34 32 30 33 35 32 36 33 29 29 28 27 27 27 26 27 25 25 24 25 25 25 25 25 26 28 29 31 31 29 31 32 34 36 35 33 32 33 35 37 41 41
37 39 36 37 37 39 39 38 36 35 33 31 32 32 31 29 31 32 29 26 29 27 26 27 26 25 26 24 24 24 25 27 27 28 29 29 28 28 29 29 30 24 28 31 31 31 33 33 32 34 38 38 38 41
39 41 38 39 40 39 40 38 39 40 38 40 36 33 32 31 31 32 28 27 28 26 27 27 26 25 25 25 26 27 29 30 30 30 30 30 30 28 29 30 32 33 33 37 30 25 26 26 28 32 35 36 37 43
38 43 37 40 38 37 38 41 42 45 45 41 41 36 34 32 30 29 29 28 27 26 25 26 27 27 29 31 31 30 33 32 30 29 32 32 31 32 36 36 34 33 36 40 34 33 30 33 33 36 36 36 37 37
45 45 41 42 38 42 45 49 51 48 47 47 50 42 40 39 36 34 31 30 33 37 35 35 37 40 36 36 38 38 32 34 34 32 32 33 34 34 33 32 32 36 39 38 37 37 35 36 37 36 35 35 34 34
47 46 41 36 39 44 48 48 49 45 47 45 42 49 42 40 37 33 35 35 37 36 31 35 35 29 32 30 36 33 30 32 36 32 32 31 31 30 30 30 32 36 36 34 34 34 34 34 33 32 32 33 33 33
51 52 53 46 42 41 46 45 44 43 45 45 44 48 49 43 35 32 34 36 33 30 30 30 29 33 33 32 31 30 29 29 30 25 23 24 25 25 27 29 31 32 32 31 30 30 31 31 30 30 31 31 31 32